This demonstration page uses our WeatherBlox Daily Observations layout. Learn more.

Left ArrowRight Arrow

Hourly Observations for September 21, 2018

Temp ( °F °C ) Dew Point ( °F °C ) Humidity (%) Winds ( mph kmh ) Pressure ( in mb ) Visibility ( mi km ) Precip ( " mm )
12:53 am 00:53 Clear 77 25 70 21.1 79 79 Calm 30.00 1016 10 16 0.00 0.00
1:53 am 01:53 Clear 73 22.8 69 20.6 87 87 Calm 30.00 1016 10 16 0.00 0.00
2:53 am 02:53 Clear 72 22.2 69 20.6 91 91 Calm 30.00 1016 10 16 0.00 0.00
3:53 am 03:53 Clear 77 25 69 20.6 77 77 VRB 3 6 29.99 1016 10 16 0.00 0.00
4:53 am 04:53 Clear 77 25 69 20.6 77 77 SW 5 7 29.99 1016 10 16 0.00 0.00
5:53 am 05:53 Clear 77 25 68 20 74 74 SW 3 6 29.99 1016 10 16 0.00 0.00
6:53 am 06:53 Clear 77 25 68 20 74 74 SW 6 9 29.99 1016 10 16 0.00 0.00
7:53 am 07:53 Sunny 77 25 67 19.4 71 71 SW 7 11 30.00 1016 10 16 0.00 0.00
8:53 am 08:53 Sunny 79 26.1 68 20 69 69 SSW 5 7 30.00 1016 10 16 0.00 0.00
9:53 am 09:53 Sunny 81 27.2 69 20.6 67 67 SW 7 11 30.00 1016 10 16 0.00 0.00
10:53 am 10:53 Sunny 84 28.9 70 21.1 63 63 SSW 8 13 30.01 1016 10 16 0.00 0.00
11:53 am 11:53 Sunny 84 28.9 70 21.1 63 63 SW 8 13 30.01 1016 10 16 0.00 0.00
12:53 pm 12:53 Sunny 87 30.6 71 21.7 59 59 SW 8 13 29.99 1016 10 16 0.00 0.00
1:53 pm 13:53 Mostly Sunny 88 31.1 71 21.7 57 57 SW 10 17 29.97 1015 10 16 0.00 0.00
2:53 pm 14:53 Partly Cloudy 87 30.6 70 21.1 57 57 SSW 9 15 29.96 1015 10 16 0.00 0.00
3:53 pm 15:53 Mostly Cloudy 85 29.4 71 21.7 63 63 SW 12 19 29.94 1014 10 16 0.00 0.00
4:53 pm 16:53 Mostly Sunny 87 30.6 71 21.7 59 59 SSW 9 15 29.92 1013 10 16 0.00 0.00
5:36 pm 17:36 Mostly Cloudy with Thunderstorms 84 28.9 71 21.7 65 65 W 7 11 29.94 1014 10 16 0.00 0.00
5:51 pm 17:51 Mostly Cloudy 84 29 70 21 62 62 W 7 11 29.94 1014 10 16 0.00 0.00
5:53 pm 17:53 Mostly Cloudy 84 28.9 70 21.1 63 63 W 8 13 29.96 1015 10 16 0.00 0.00
6:00 pm 18:00 Mostly Cloudy with Nearby Thunderstorms 84 28.9 69 20.6 61 61 W 6 9 29.94 1014 10 16 0.00 0.00
6:15 pm 18:15 Mostly Sunny 83 28.3 70 21.1 65 65 W 7 11 29.94 1014 10 16 0.00 0.00
6:53 pm 18:53 Mostly Sunny 80 26.7 72 22.2 76 76 SSW 3 6 29.97 1015 10 16 0.00 0.00
7:53 pm 19:53 Clear 78 25.6 70 21.1 76 76 VRB 5 7 30.00 1016 10 16 0.00 0.00
8:53 pm 20:53 Clear 76 24.4 70 21.1 82 82 WSW 7 11 30.03 1017 10 16 0.00 0.00
9:53 pm 21:53 Partly Cloudy 75 23.9 70 21.1 84 84 WSW 7 11 30.06 1018 10 16 0.00 0.00
10:53 pm 22:53 Clear 75 23.9 67 19.4 76 76 WNW 12 19 30.08 1019 10 16 0.00 0.00
11:53 pm 23:53 Clear 73 22.8 58 14.4 59 59 NNW 9 15 30.11 1020 10 16 0.00 0.00

Powered by AerisWeather